^^
Refsnesbakken Borettslag Station Historical Data
 
Daily Summary for May 07, 2026 Units:  Metric    English   Both
Daily Weekly Monthly Yearly
  Current: High: Low: Average:
Temperature: 5.6 °C 7.2 °C 5.4 °C 6.2 °C
Dew Point: -2 °C -0.6 °C -2.7 °C -1.3 °C
Humidity: 58.1% 61.7% 54.5% 59%
Wind Speed: 13km/h 13km/h 9.3km/h 10.2km/h
Wind Gust: 13km/h 13km/h - -
WindNNW - - NNW
Pressure: 1017.7 hPa 1017.8 hPa 1016.0 hPa -
Precipitation: 0.0 mm      
 
 
Tabular Data for May 07, 2026
Time Temperature Dew Point Pressure Wind Wind Speed Wind Gust Humidity Rainfall Rate (Hourly) solar
00:09 7.2 °C -1.2 °C 1016.0 hPa North 9.3 km/h 11.3 km/h 55.2% 0.0 mm 0 W/m2
00:14 7.2 °C -1.1 °C 1016.0 hPa North 9.3 km/h 9.7 km/h 56% 0.0 mm 0 W/m2
00:19 7.2 °C -1.1 °C 1016.1 hPa North 9.3 km/h 9.7 km/h 55.8% 0.0 mm 0 W/m2
00:24 7.2 °C -1.4 °C 1016.1 hPa North 9.3 km/h 9.7 km/h 54.5% 0.0 mm 0 W/m2
00:29 7.2 °C -0.9 °C 1016.1 hPa North 9.3 km/h 9.7 km/h 56.7% 0.0 mm 0 W/m2
00:34 7.2 °C -0.6 °C 1016.3 hPa NNW 10.7 km/h 11.1 km/h 57.6% 0.0 mm 0 W/m2
00:39 7.1 °C -0.7 °C 1016.2 hPa NNW 11.1 km/h 11.3 km/h 57.9% 0.0 mm 0 W/m2
00:44 7 °C -0.7 °C 1016.3 hPa NNW 11.1 km/h 11.3 km/h 58% 0.0 mm 0 W/m2
00:49 6.9 °C -0.8 °C 1016.3 hPa NNW 11.1 km/h 11.3 km/h 58% 0.0 mm 0 W/m2
00:54 6.8 °C -0.9 °C 1016.2 hPa NNW 11.1 km/h 11.3 km/h 58.2% 0.0 mm 0 W/m2
00:59 6.8 °C -1.1 °C 1016.3 hPa NNW 11.1 km/h 11.3 km/h 57.5% 0.0 mm 0 W/m2
01:04 6.7 °C -1.4 °C 1016.4 hPa NNW 10.4 km/h 11.3 km/h 56.4% 0.0 mm 0 W/m2
01:09 6.7 °C -1.3 °C 1016.4 hPa NNW 9.3 km/h 11.3 km/h 56.9% 0.0 mm 0 W/m2
01:14 6.7 °C -1.3 °C 1016.5 hPa NNW 9.3 km/h 9.7 km/h 56.8% 0.0 mm 0 W/m2
01:19 6.6 °C -1.1 °C 1016.5 hPa NNW 9.3 km/h 9.7 km/h 57.8% 0.0 mm 0 W/m2
01:24 6.6 °C -1.2 °C 1016.5 hPa NNW 9.3 km/h 9.7 km/h 57.6% 0.0 mm 0 W/m2
01:29 6.5 °C -1 °C 1016.6 hPa NNW 9.3 km/h 9.7 km/h 58.7% 0.0 mm 0 W/m2
01:34 6.4 °C -1.2 °C 1016.5 hPa NNW 9.3 km/h 9.7 km/h 58.1% 0.0 mm 0 W/m2
01:39 6.4 °C -1.3 °C 1016.5 hPa NNW 9.3 km/h 9.7 km/h 57.8% 0.0 mm 0 W/m2
01:44 6.3 °C -1.1 °C 1016.6 hPa NNW 9.3 km/h 9.7 km/h 59.2% 0.0 mm 0 W/m2
01:49 6.3 °C -1.1 °C 1016.6 hPa NNW 9.3 km/h 9.7 km/h 59.3% 0.0 mm 0 W/m2
01:54 6.3 °C -1.2 °C 1016.6 hPa NNW 9.3 km/h 9.7 km/h 59% 0.0 mm 0 W/m2
01:59 6.3 °C -1.2 °C 1016.6 hPa NNW 9.3 km/h 9.7 km/h 59% 0.0 mm 0 W/m2
02:04 6.2 °C -0.9 °C 1016.7 hPa NNW 9.3 km/h 9.7 km/h 60.5% 0.0 mm 0 W/m2
02:09 6.1 °C -1.1 °C 1016.8 hPa NNW 9.3 km/h 9.7 km/h 59.6% 0.0 mm 0 W/m2
02:14 6.1 °C -0.9 °C 1016.8 hPa NNW 9.3 km/h 9.7 km/h 60.7% 0.0 mm 0 W/m2
02:19 6.1 °C -1 °C 1016.8 hPa NNW 9.3 km/h 9.7 km/h 60.2% 0.0 mm 0 W/m2
02:24 6.1 °C -0.9 °C 1016.8 hPa NNW 9.3 km/h 9.7 km/h 60.9% 0.0 mm 0 W/m2
02:29 6.1 °C -0.8 °C 1016.9 hPa NNW 9.3 km/h 9.7 km/h 61.3% 0.0 mm 0 W/m2
02:34 6.1 °C -0.7 °C 1016.9 hPa NNW 9.3 km/h 9.7 km/h 61.7% 0.0 mm 0 W/m2
02:39 6 °C -0.8 °C 1017.0 hPa NNW 9.3 km/h 9.7 km/h 61.5% 0.0 mm 0 W/m2
02:44 6 °C -0.9 °C 1017.0 hPa NNW 9.3 km/h 9.7 km/h 60.9% 0.0 mm 0 W/m2
02:49 6 °C -1 °C 1017.1 hPa NNW 9.3 km/h 9.7 km/h 60.7% 0.0 mm 0 W/m2
02:54 6 °C -1.1 °C 1017.1 hPa NNW 9.3 km/h 9.7 km/h 60.4% 0.0 mm 0 W/m2
02:59 6 °C -1.1 °C 1017.2 hPa NNW 9.3 km/h 9.7 km/h 60.5% 0.0 mm 0 W/m2
03:04 5.9 °C -1 °C 1017.1 hPa NNW 10.7 km/h 11.1 km/h 60.9% 0.0 mm 0 W/m2
03:09 5.9 °C -1.1 °C 1017.2 hPa NNW 11.1 km/h 11.3 km/h 60.8% 0.0 mm 0 W/m2
03:14 5.8 °C -1.4 °C 1017.2 hPa NNW 11.1 km/h 11.3 km/h 59.9% 0.0 mm 0 W/m2
03:19 5.8 °C -1.3 °C 1017.2 hPa NNW 11.1 km/h 11.3 km/h 60.4% 0.0 mm 0 W/m2
03:24 5.6 °C -1.3 °C 1017.3 hPa NNW 11.1 km/h 11.3 km/h 61% 0.0 mm 0 W/m2
03:29 5.4 °C -1.6 °C 1017.3 hPa NNW 11.1 km/h 11.3 km/h 60.7% 0.0 mm 0 W/m2
03:34 5.4 °C -2 °C 1017.4 hPa NNW 11.1 km/h 11.3 km/h 59.2% 0.0 mm 0 W/m2
03:39 5.4 °C -2 °C 1017.4 hPa North 11.1 km/h 11.3 km/h 58.9% 0.0 mm 0 W/m2
03:44 5.5 °C -2.5 °C 1017.4 hPa North 11.1 km/h 11.3 km/h 56.5% 0.0 mm 0 W/m2
03:49 5.5 °C -2.6 °C 1017.4 hPa North 11.1 km/h 11.3 km/h 56.1% 0.0 mm 0 W/m2
03:54 5.5 °C -2.3 °C 1017.6 hPa North 11.1 km/h 11.3 km/h 57% 0.0 mm 0 W/m2
03:59 5.5 °C -2.3 °C 1017.6 hPa North 11.1 km/h 11.3 km/h 57% 0.0 mm 0 W/m2
04:04 5.5 °C -2.5 °C 1017.6 hPa NNW 12.6 km/h 13 km/h 56.4% 0.0 mm 0 W/m2
04:09 5.4 °C -2.7 °C 1017.6 hPa NNW 13 km/h 13 km/h 56% 0.0 mm 0 W/m2
04:14 5.5 °C -2.5 °C 1017.8 hPa NNW 13 km/h 13 km/h 56.3% 0.0 mm 0 W/m2
04:19 5.6 °C -2 °C 1017.7 hPa NNW 13 km/h 13 km/h 58.1% 0.0 mm 0 W/m2
Refsnesbakken, Moss, Norway
Compliments of Weather Underground - 2 mb